Tracking 19792 objects as of 15-Jul-2019
HD Live streaming from Space Station
objects crossing your sky now

FENGYUN 1C DEB

Track FENGYUN 1C DEB now!
10-day predictions


NORAD ID: 32357
Int'l Code: 1999-025CZA
Perigee: 663.0 km
Apogee: 1,516.8 km
Inclination: 98.9 °
Period: 106.9 minutes
Semi major axis: 7460 km
RCS: 0.0112 m2 (small)
Launch date: May 10, 1999
Source: People's Republic of China (PRC)
Launch site: Taiyaun Space Center, China (TSC)

Note: This is SATELLITE DEBRIS
aabbcc
Your satellite tracking list
Your tracking list is empty




NASA's NSSDC Master Catalog

Two Line Element Set (TLE):
1 32357U 99025CZA 19195.48125178  .00000530  00000-0  33785-3 0  9993
2 32357  98.8786  70.9687 0572205 106.5002  13.8755 13.47152504591679
Source of the keplerian elements: AFSPC